This is the latest recevied weather packets stored in our database for station/object LA4GY-1. If no packets are shown the sender has not sent any weather packets the latest 10 day(s).
| Time | Temp. | Humidity | Pressure | Rain* | Wind** | Luminosity | Snow |
|---|---|---|---|---|---|---|---|
| 1787937898 | 18.89° C | 73% | 1013.2 hPa | 0 mm | - | - | - |
| 1787937298 | 19.44° C | 74% | 1013.3 hPa | 0 mm | - | - | - |
| 1787936698 | 19.44° C | 74% | 1013.6 hPa | 0 mm | - | - | - |
| 1787936098 | 19.44° C | 74% | 1013.7 hPa | 0 mm | - | - | - |
| 1787935498 | 19.44° C | 74% | 1013.9 hPa | 0 mm | - | - | - |
| 1787934898 | 19.44° C | 74% | 1013.9 hPa | 0 mm | - | - | - |
| 1787934298 | 19.44° C | 73% | 1014.1 hPa | 0 mm | - | - | - |
| 1787933698 | 20° C | 71% | 1014.4 hPa | 0 mm | - | - | - |
| 1787933098 | 20° C | 71% | 1014.3 hPa | 0 mm | - | - | - |
| 1787932498 | 20° C | 71% | 1014.3 hPa | 0 mm | - | - | - |
| 1787931898 | 20° C | 70% | 1014.4 hPa | 0 mm | - | - | - |
| 1787931298 | 20° C | 71% | 1014.6 hPa | 0 mm | - | - | - |
| 1787930668 | 20° C | 70% | 1014.8 hPa | 0 mm | - | - | - |
| 1787930068 | 20.56° C | 72% | 1015 hPa | 0 mm | - | - | - |
| 1787929468 | 20.56° C | 71% | 1014.8 hPa | 0 mm | - | - | - |
| 1787928868 | 20.56° C | 72% | 1014.8 hPa | 0 mm | - | - | - |
| 1787928268 | 20.56° C | 75% | 1014.9 hPa | 0 mm | - | - | - |
| 1787927668 | 20° C | 77% | 1014.9 hPa | 0 mm | - | - | - |
| 1787927067 | 20° C | 77% | 1015.1 hPa | 0 mm | - | - | - |
| 1787926468 | 20° C | 76% | 1015.1 hPa | 0 mm | - | - | - |
| 1787925868 | 20.56° C | 75% | 1015.2 hPa | 0 mm | - | - | - |
| 1787925267 | 20.56° C | 74% | 1015.4 hPa | 0 mm | - | - | - |
| 1787924667 | 20.56° C | 71% | 1015.4 hPa | 0 mm | - | - | - |
| 1787924037 | 20.56° C | 71% | 1015.5 hPa | 0 mm | - | - | - |
| 1787923437 | 20.56° C | 72% | 1015.7 hPa | 0 mm | - | - | - |
* Rain latest hour (hover to see other rain measurements)
** Current wind speed in m/s (hover to see current wind gust speed)